Change the Weather History Date:

Thursday, September 19, 2013

  Actual Average Record
Temperature  
Mean Temperature 78 °F 69 °F  
Max Temperature 90 °F 80 °F 99 °F (1931)
Min Temperature 65 °F 57 °F 39 °F (1991)
Degree Days  
Heating Degree Days 0 2  
Month to date heating degree days 3 15  
Since 1 July heating degree days 6 16  
Cooling Degree Days 13 6  
Month to date cooling degree days 249 160  
Year to date cooling degree days 1643 1567  
Growing Degree Days 28 (Base 50)    
Moisture  
Dew Point 62 °F    
Average Humidity 59    
Maximum Humidity 73    
Minimum Humidity 44    
Precipitation  
Precipitation T in 0.09 in 2.28 in (1967)
Month to date precipitation 1.21 1.73  
Year to date precipitation 27.45 26.07  
Sea Level Pressure  
Sea Level Pressure 29.82 in    
Wind  
Wind Speed 14 mph (WSW)    
Max Wind Speed 26 mph    
Max Gust Speed 32 mph    
Visibility 10 miles    
Events      
T = Trace of Precipitation, MM = Missing Value Source: NWS Daily Summary

Daily Weather History Graph

Daily Weather History Graph

Search for Another Location

Airport or City:

Trip Planner

Search our weather history database for the weather conditions in past years. The results will help you decide how hot, cold, wet, or windy it might be!

Date:

Astronomy

Sep. 19, 2013 Rise Set
Actual Time 7:15 AM CDT 7:31 PM CDT
Civil Twilight 6:49 AM CDT 7:58 PM CDT
Nautical Twilight 6:18 AM CDT 8:29 PM CDT
Astronomical Twilight 5:46 AM CDT 9:01 PM CDT
Moon 7:31 PM CDT (9/19) 7:26 AM CDT (9/19)
Length of Visible Light 13h 09m
Length of Day
12h 16m
Full, 100% of the Moon is Illuminated
Sep 19
Full
Sep 26
Last Quarter
Oct 4
New
Oct 11
First Quarter
Oct 18
Full

Hourly Weather History & Observations

Time (CDT) Temp. Heat Index Dew Point Humidity Pressure Visibility Wind Dir Wind Speed Gust Speed Precip Events Conditions
12:53 AM 78.1 °F - 60.1 °F 54% 29.76 in 10.0 mi South 11.5 mph - N/A   Clear
1:53 AM 75.0 °F - 61.0 °F 62% 29.76 in 10.0 mi South 11.5 mph - N/A   Clear
2:53 AM 75.0 °F - 61.0 °F 62% 29.76 in 10.0 mi South 11.5 mph - N/A   Clear
3:53 AM 75.9 °F - 62.1 °F 62% 29.75 in 10.0 mi South 13.8 mph 21.9 mph N/A   Clear
4:53 AM 75.0 °F - 62.1 °F 64% 29.75 in 10.0 mi South 12.7 mph - N/A   Clear
5:53 AM 75.0 °F - 62.1 °F 64% 29.75 in 10.0 mi South 15.0 mph 20.7 mph N/A   Clear
6:53 AM 73.9 °F - 63.0 °F 68% 29.75 in 10.0 mi South 11.5 mph - N/A   Clear
7:53 AM 75.0 °F - 63.0 °F 66% 29.76 in 10.0 mi South 17.3 mph 24.2 mph N/A   Clear
8:53 AM 78.1 °F - 64.0 °F 62% 29.77 in 10.0 mi South 16.1 mph - N/A   Clear
9:53 AM 82.0 °F 83.4 °F 64.0 °F 54% 29.78 in 10.0 mi SSW 17.3 mph 24.2 mph N/A   Clear
10:53 AM 84.9 °F 86.1 °F 64.0 °F 49% 29.79 in 10.0 mi SSW 18.4 mph 25.3 mph N/A   Clear
11:53 AM 89.1 °F 91.0 °F 64.9 °F 45% 29.78 in 10.0 mi SW 18.4 mph 26.5 mph N/A   Clear
12:53 PM 89.1 °F 91.0 °F 64.9 °F 45% 29.78 in 10.0 mi WSW 19.6 mph 25.3 mph N/A   Clear
1:53 PM 86.0 °F 87.6 °F 64.9 °F 49% 29.78 in 10.0 mi West 15.0 mph - N/A   Clear
2:53 PM 82.9 °F 84.6 °F 64.9 °F 54% 29.78 in 10.0 mi WNW 13.8 mph - N/A   Mostly Cloudy
3:53 PM 84.0 °F 85.8 °F 64.9 °F 53% 29.78 in 10.0 mi West 9.2 mph - 0.00 in   Scattered Clouds
4:53 PM 80.1 °F 81.9 °F 64.9 °F 60% 29.79 in 10.0 mi NNW 23.0 mph - N/A   Scattered Clouds
5:53 PM 75.9 °F - 62.1 °F 62% 29.82 in 10.0 mi NNW 21.9 mph 28.8 mph N/A   Clear
6:53 PM 73.0 °F - 59.0 °F 61% 29.87 in 10.0 mi North 18.4 mph - N/A   Clear
7:53 PM 70.0 °F - 57.0 °F 63% 29.90 in 10.0 mi North 12.7 mph - N/A   Partly Cloudy
8:53 PM 70.0 °F - 55.9 °F 61% 29.96 in 10.0 mi NNE 5.8 mph - N/A   Clear
9:53 PM 68.0 °F - 57.9 °F 70% 29.99 in 10.0 mi NNW 4.6 mph - N/A   Mostly Cloudy
10:53 PM 66.9 °F - 57.9 °F 73% 30.01 in 10.0 mi NNW 4.6 mph - N/A   Mostly Cloudy
11:53 PM 66.9 °F - 54.0 °F 63% 30.01 in 10.0 mi NNW 9.2 mph - N/A   Partly Cloudy